Regional Weather Roundup
Issued by NWS

Home | Current Version | Previous Version | Graphics & Text | Print | Product List | Glossary On
Versions: 1 2 3 4 5 6 7 8 9 10 11 12 13 14 15 16 17 18 19 20 21 22 23 24 25 26 27 28 29 30 31 32 33 34 35 36 37 38 39 40 41 42 43 44 45 46 47 48 49 50
000
ASUS43 KDTX 241210
RWRMI
MICHIGAN HOURLY REGIONAL WEATHER ROUNDUP
NATIONAL WEATHER SERVICE DETROIT/PONTIAC MI
ISSUED BY NATIONAL WEATHER SERVICE GRAND RAPIDS MI
700 AM EST FRI FEB 24 2017

NOTE: "FAIR" INDICATES FEW OR NO CLOUDS BELOW 12,000 FEET WITH NO
SIGNIFICANT WEATHER AND/OR OBSTRUCTION TO VISIBILITY.

MIZ047>049-052>055-059>063-066>070-074>076-081>083-241300-
SOUTHEAST LOWER MICHIGAN

CITY           SKY/WX    TMP DP  RH WIND       PRES   REMARKS
ADRIAN         FOG       41  41 100 SE8       29.64F VSB 3/4
6HR MIN TEMP:  41; 6HR MAX TEMP:  41; 6HR PCP:  0.10;

ALMA           CLOUDY    32  32  99 E15       29.66F WCI  22
ANN ARBOR      CLOUDY    40  40 100 E7        29.63F FOG
BAD AXE        LGT SNOW  34  34  99 NE6       29.72F WCI  29
6HR MIN TEMP:  32; 6HR MAX TEMP:  34;

DETROIT CITY   CLOUDY    40  40 100 E7        29.66F
6HR MIN TEMP:  38; 6HR MAX TEMP:  40; 6HR PCP:  0.04;

DETROIT        CLOUDY    41  40  96 E9        29.66F FOG
6HR MIN TEMP:  41; 6HR MAX TEMP:  41; 6HR PCP:  0.04;

FLINT          CLOUDY    36  35  96 E13       29.66F WCI  27
6HR MIN TEMP:  36; 6HR MAX TEMP:  37; 6HR PCP:  0.13;

GROSSE ILE     CLOUDY    41  40  97 CALM      29.66S
6HR MIN TEMP:  39; 6HR MAX TEMP:  41; 6HR PCP:  0.15;

HILLSDALE      FOG       41  41 100 SE9       29.59F VSB 1/4
HOWELL         CLOUDY    38  37  95 NE6       29.64F FOG     WCI  33
6HR MIN TEMP:  37; 6HR MAX TEMP:  38; 6HR PCP:  0.07;


CITY           SKY/WX    TMP DP  RH WIND       PRES   REMARKS
JACKSON        CLOUDY    41  39  93 E7        29.61F FOG
6HR MIN TEMP:  40; 6HR MAX TEMP:  43; 6HR PCP:  0.03;

LANSING        CLOUDY    37  34  89 E9        29.64F WCI  30
6HR MIN TEMP:  37; 6HR MAX TEMP:  40; 6HR PCP:  0.12;

MASON          CLOUDY    38  37  99 E6        29.62F WCI  33
MONROE         FOG       42  42 100 E13G22    29.65F VSB 1
MT. CLEMENS    CLOUDY    39  39 100 E5        29.65F
6HR MIN TEMP:  38; 6HR MAX TEMP:  39; 6HR PCP:  0.07;

PONTIAC        CLOUDY    38  36  92 E8        29.64F FOG     WCI  32
6HR MIN TEMP:  37; 6HR MAX TEMP:  38; 6HR PCP:  0.02;

PORT HOPE        N/A     36  35  96 NE16      29.73F WCI  26
6HR MIN TEMP:  35; 6HR MAX TEMP:  36; 6HR PCP:  0.20;

PORT HURON     DRIZZLE   36  36 100 NE7       29.66F WCI  30
TRI CITIES     LGT RAIN  33  32  96 E13       29.68F WCI  24
6HR MIN TEMP:  32; 6HR MAX TEMP:  37; 6HR PCP:  0.31;

YPSILANTI      CLOUDY    42  41  96 E6        29.65F FOG
6HR MIN TEMP:  41; 6HR MAX TEMP:  42; 6HR PCP:  0.02;

$$
MIZ043>046-050>051-056>058-064>065-071>073-077>080-241300-
SOUTHWEST LOWER MICHIGAN

CITY           SKY/WX    TMP DP  RH WIND       PRES   REMARKS
BATTLE CREEK   CLOUDY    40  39  97 E12       29.59F WCI  33
6HR MIN TEMP:  40; 6HR MAX TEMP:  46; 6HR PCP:  0.04;

BENTON HARBOR  CLOUDY    51  48  89 E13       29.49F
6HR MIN TEMP:  48; 6HR MAX TEMP:  51; 6HR PCP:  0.03;

BIG RAPIDS     LGT SNOW  34  32  94 E10G21    29.63F WCI  26
6HR MIN TEMP:  32; 6HR MAX TEMP:  35; 6HR PCP:  0.55;

COLDWATER      CLOUDY    46  46 100 SE10G16   29.57F FOG
6HR MIN TEMP:  44; 6HR MAX TEMP:  47;

HOLLAND        CLOUDY    39  36  89 E15       29.55F WCI  31
6HR MIN TEMP:  38; 6HR MAX TEMP:  43; 6HR PCP:  0.18;

GRAND RAPIDS   CLOUDY    36  34  92 E22       29.59F WCI  25
6HR MIN TEMP:  36; 6HR MAX TEMP:  41; 6HR PCP:  0.26;

KALAMAZOO      CLOUDY    43  39  86 E7        29.57F
6HR MIN TEMP:  43; 6HR MAX TEMP:  46; 6HR PCP:  0.01;

MARSHALL       CLOUDY    41  40  98 E7        29.58F
6HR MIN TEMP:  40; 6HR MAX TEMP:  46; 6HR PCP:  0.04;

MOUNT PLEASANT DRIZZLE   32  31  97 N7        29.70R WCI  26
6HR MIN TEMP:  32; 6HR MAX TEMP:  37; 6HR PCP:  0.42;

MUSKEGON       TSTM      36  33  89 E22       29.57F WCI  25
6HR MIN TEMP:  36; 6HR MAX TEMP:  39; 6HR PCP:  0.86;

STURGIS        CLOUDY    48  48  99 SE12      29.55F FOG
6HR MIN TEMP:  44; 6HR MAX TEMP:  48;

$$
MIZ016>042-241300-
NORTHERN LOWER MICHIGAN

CITY           SKY/WX    TMP DP  RH WIND       PRES   REMARKS
ALPENA         LGT SNOW  32  32 100 N7        29.80S FOG     WCI  26
6HR MIN TEMP:  30; 6HR MAX TEMP:  32; 6HR PCP:  0.14;

BEAVER ISLAND  LGT SNOW  28  23  81 NE13G21   29.81F WCI  18
6HR MIN TEMP:  28; 6HR MAX TEMP:  31;

BELLAIRE       LGT SNOW  28  27  94 NE9       29.77F WCI  20
6HR MIN TEMP:  28; 6HR MAX TEMP:  31;

CADILLAC       FLURRIES  30  28  93 NE12      29.66F WCI  20
CHARLEVOIX     LGT SNOW  28  28  96 NE14      29.81F VSB 1   WCI  17
GAYLORD        LGT SNOW  28  23  81 NE14      29.73F VSB 3/4 WCI  17
6HR MIN TEMP:  27; 6HR MAX TEMP:  29; 6HR PCP:  0.16;

HOUGHTON LAKE  FRZ RAIN  30  28  92 N9        29.75R FOG     WCI  22
6HR MIN TEMP:  28; 6HR MAX TEMP:  32; 6HR PCP:  0.30;

MANISTEE       FLURRIES  30  27  88 NE17G23   29.66F WCI  18
OSCODA         FLURRIES  33  32  95 NE13      29.75F WCI  24
6HR MIN TEMP:  31; 6HR MAX TEMP:  34; 6HR PCP:  0.12;

PELLSTON       LGT SNOW  28  24  85 NE9       29.83F VSB 3/4 WCI  19
6HR MIN TEMP:  28; 6HR MAX TEMP:  31; 6HR PCP:  0.03;

TRAVERSE CITY  LGT SNOW  30  27  88 NE14G21   29.75F FOG     WCI  19
6HR MIN TEMP:  30; 6HR MAX TEMP:  31; 6HR PCP:  0.32;

LUDINGTON      LGT SNOW  32  31  98 NE13      29.61F WCI  22
6HR MIN TEMP:  32; 6HR MAX TEMP:  32; 6HR PCP:  0.17;

$$
MIZ007>008-015-241300-
EASTERN UPPER MICHIGAN

CITY           SKY/WX    TMP DP  RH WIND       PRES   REMARKS
KINROSS        CLOUDY    27  20  75 NE13      29.83F WCI  16
6HR MIN TEMP:  27; 6HR MAX TEMP:  29;

MACKINAC ISLAN LGT SNOW  28  21  75 NE13G20   29.83F WCI  18
6HR MIN TEMP:  28; 6HR MAX TEMP:  30;

NEWBERRY       CLOUDY    27  19  74 NE13G20   29.83F WCI  16
6HR MIN TEMP:  27; 6HR MAX TEMP:  30;

S. S. MARIE    CLOUDY    29  20  69 NE7       29.84F WCI  22
6HR MIN TEMP:  29; 6HR MAX TEMP:  31;

$$
MIZ004>006-011>014-085-241300-
CENTRAL UPPER MICHIGAN

CITY           SKY/WX    TMP DP  RH WIND       PRES   REMARKS
MANISTIQUE     LGT SNOW  27  26  93 NE13      29.80F WCI  17
6HR MIN TEMP:  27; 6HR MAX TEMP:  31;

ESCANABA       FLURRIES  28  26  92 N10       29.80F WCI  19
6HR MIN TEMP:  28; 6HR MAX TEMP:  31; 6HR PCP:  0.01;

MENOMINEE      LGT SNOW  29  27  92 MISG        N/A  FOG
6HR MIN TEMP:  29; 6HR MAX TEMP:  33;

SAWYER-GWINN   CLOUDY    25  21  86 NE10G24   29.83F WCI  15
$$
MIZ001>003-009>011-084-241300-
WESTERN UPPER MICHIGAN

CITY           SKY/WX    TMP DP  RH WIND       PRES   REMARKS
IRON MOUNTAIN  LGT SNOW  27  21  78 N13       29.78R WCI  16
6HR MIN TEMP:  27; 6HR MAX TEMP:  30; 6HR PCP:  0.04;

HOUGHTON       CLOUDY    20  12  71 NE13      29.92R WCI   7
6HR MIN TEMP:  20; 6HR MAX TEMP:  26;

COPPER HARBOR    N/A     23  17  78 E21G28    29.95F WCI   8
6HR MIN TEMP:  23; 6HR MAX TEMP:  28;

IRONWOOD       FLURRIES  22  18  85 NE10      29.91R WCI  11
6HR MIN TEMP:  22; 6HR MAX TEMP:  26; 6HR PCP: TRACE;

$$

ABBREVIATIONS USED IN REMARKS
   TC - TEMPERATURE IN CELSIUS
  WCI - WIND CHILL INDEX
   HX - HEAT INDEX
  VSB - VISIBILITY





USA.gov is the U.S. government's official web portal to all federal, state and local government web resources and services.